Content
SEND FEEDBACK

Daily
Averages
Monthly
Summary
Honduras

SAN PEDRO SULA, HONDURAS


Home > Central America > Honduras
Elevation: 31 meters     Latitude: 15 27N     Longitude: 087 56W

WEATHER
 
SELECT A DAY
Number of Records: 47,705;   Date Range: 7/3/96 - 7/11/14
 
SHARE

PRINT THIS DATA

[ ← Previous Day ]
WEATHER ALMANAC - 31 JANUARY, 2013
[ Next Day → ]
[ °F ]   °C
Weather ElementAverageHighLow
Temperature24.6 °C31 °C (3:00 pm)19 °C (6:00 am)
Dewpoint22.4 °C25 °C (6:00 pm)19 °C (6:00 am)
Humidity88.6 %100 % (12:00 am)54 % (3:00 pm)
Barometer1015.9 hPa1017.9 hPa (9:00 am)1013.9 hPa (3:00 am)
Wind Speed7.9 km/h24.1 km/h (3:00 pm)
Weather ElementAverage
Visibility10 km
Wind DirectionSSE (147.9 °)

Weather ElementTotal
Precipitation---
Cooling Degree Days6.7 (Base 18.3)
Growing Degree Days15 (Base 10)
Averaged from 30 records on 31 January, 2013
WEATHER CONDITIONS BREAKOUT
WIND DIRECTION BREAKOUT
WEATHER BY HOUR - 31 JANUARY, 2013
[ °F ]   °C
Local TimeTemperatureDewpointHumidityBarometerVisibilityWind DirectionWind SpeedGust SpeedPrecipitationEventsConditions
12:00 AM21 °C21 °C100 %1014.2 hPa10 kmCalmClear
1:00 AM21 °C21 °C100 %1014.2 hPa10 kmCalmClear
2:00 AM20 °C20 °C100 %1014.2 hPa10 kmCalmClear
3:00 AM20 °C20 °C99 %1013.9 hPa11.3 kmSSW (210°)3.7 km/hHaze
3:00 AM20 °C20 °C100 %1014.2 hPa10 kmSSW (210°)3.7 km/hClear
4:00 AM20 °C20 °C100 %1014.2 hPa10 kmSSW (210°)3.7 km/hClear
5:00 AM20 °C20 °C100 %1014.2 hPa10 kmSSW (210°)3.7 km/hClear
6:00 AM19 °C19 °C100 %1015.2 hPa10 kmSSW (210°)7.4 km/hPartly Cloudy
6:00 AM19.4 °C19.4 °C98 %1015.2 hPa11.3 kmCalmHaze
7:00 AM19 °C19 °C100 %1016.3 hPa10 kmSSW (210°)7.4 km/hPartly Cloudy
8:00 AM21 °C21 °C100 %1017.3 hPa10 kmCalmPartly Cloudy
9:00 AM22.8 °C22.2 °C94 %1017.6 hPa9.7 kmCalmHaze
9:00 AM23 °C22 °C94 %1017.9 hPa10 kmCalmPartly Cloudy
10:00 AM27 °C23 °C79 %1017.9 hPa10 kmCalmPartly Cloudy
11:00 AM28 °C24 °C79 %1017.9 hPa10 kmCalmPartly Cloudy
12:00 PM29 °C24 °C74 %1017.3 hPa10 kmCalmPartly Cloudy
1:00 PM30 °C24 °C70 %1016.3 hPa10 kmEast (80°)5.6 km/hScattered Clouds
2:00 PM30 °C23 °C66 %1015.2 hPa10 kmNorth (360°)18.5 km/hScattered Clouds
3:00 PM30.6 °C22.8 °C54 %1014.6 hPa9.7 kmNorth (10°)24.1 km/hHaze
3:00 PM31 °C22 °C58 %1014.2 hPa10 kmNorth (10°)24.1 km/hScattered Clouds
4:00 PM30 °C23 °C66 %1014.2 hPa10 kmNorth (360°)22.2 km/hScattered Clouds
5:00 PM28 °C24 °C79 %1015.2 hPa10 kmNorth (10°)20.4 km/hMostly Cloudy
6:00 PM27 °C25 °C89 %1016.3 hPa10 kmNorth (10°)16.7 km/hMostly Cloudy
6:00 PM26.7 °C24.4 °C85 %1015.6 hPa9.7 kmNorth (10°)16.7 km/hHaze
7:00 PM26 °C25 °C94 %1016.3 hPa10 kmNorth (360°)11.1 km/hMostly Cloudy
8:00 PM26 °C25 °C94 %1017.3 hPa10 kmNNW (340°)7.4 km/hScattered Clouds
9:00 PM25.6 °C24.4 °C92 %1017.9 hPa9.7 kmNNW (330°)11.1 km/hHaze
9:00 PM26 °C25 °C94 %1017.9 hPa10 kmNNW (330°)11.1 km/hMostly Cloudy
10:00 PM25 °C25 °C100 %1017.9 hPa10 kmNNW (330°)11.1 km/hMostly Cloudy
11:00 PM25 °C25 °C100 %1017.9 hPa10 kmNNW (340°)7.4 km/hMostly Cloudy
Hourly data recorded from MHLM, located 0 kilometers away from San Pedro Sula, Honduras







STORIES FROM OUR PARTNERS